Temp
65 65 65 65 65 65 65 65 65 65 65 65 65 65 65 64 65 65 60 69 71 72 69 69 68 67 69 66 67 64 53 52 56 55 57 63 60 63 64 64 64 64 62 64 66
64 64 65 65 65 65 64 65 64 65 65 65 64 64 63 63 63 60 70 72 71 70 69 65 61 67 63 63 65 61 50 55 63 59 60 65 62 63 61 59 57 57 61 65 64
63 64 64 64 64 64 64 64 64 64 65 64 65 63 62 63 56 60 70 72 71 71 70 70 66 63 61 59 59 58 52 63 63 65 66 63 61 65 61 56 60 57 58 61 61
62 63 63 63 64 64 64 63 63 63 64 64 63 62 61 60 48 67 69 71 71 71 68 67 62 56 57 55 60 53 63 62 63 64 64 63 65 61 61 61 67 63 62 62 63
61 62 62 63 63 64 64 63 63 63 63 64 63 61 60 53 56 69 67 69 71 69 64 64 59 55 53 54 59 55 59 64 63 63 63 65 61 61 60 63 64 64 63 61 62
61 61 61 62 62 63 63 63 63 62 63 63 63 63 57 49 69 70 69 68 69 67 66 64 61 62 56 58 57 62 61 63 63 62 60 61 59 62 62 64 62 62 59 59 61
61 60 60 61 62 62 63 63 63 62 62 63 63 62 55 53 69 69 70 67 69 68 63 66 66 61 58 54 59 62 54 60 60 58 58 60 56 59 66 64 61 59 58 58 59
60 60 59 60 61 61 62 62 62 62 62 62 62 58 51 66 68 68 68 65 66 68 69 69 66 60 55 55 55 51 52 49 57 58 59 59 49 59 64 63 60 58 56 58 60
59 59 59 59 60 60 61 62 61 62 62 62 55 52 49 62 60 65 66 61 62 64 69 71 66 54 56 48 44 48 43 49 54 60 57 55 48 59 62 62 60 58 57 59 59
59 59 59 59 59 60 60 61 61 61 59 58 56 48 51 52 59 61 66 65 58 58 59 60 56 48 49 44 38 39 45 49 50 54 54 50 50 58 58 60 60 59 58 60 59
58 59 59 59 59 60 58 53 49 46 51 46 48 47 51 56 62 60 65 61 58 54 47 52 48 43 45 49 50 48 46 46 50 56 52 53 50 55 59 57 56 57 58 59 60
58 58 59 59 60 60 55 50 52 52 43 51 50 52 54 57 51 57 65 54 51 45 51 47 43 50 51 50 48 49 45 47 53 56 54 50 50 54 57 58 58 59 59 58 60
57 58 58 59 59 56 52 51 61 56 41 45 49 48 50 55 50 51 57 53 49 47 47 44 49 52 51 48 46 46 46 49 50 53 54 45 44 49 56 57 60 61 61 61 60
57 57 57 58 53 52 48 56 56 54 32 37 43 47 50 51 45 58 59 55 49 46 49 48 51 51 48 47 49 42 51 51 49 47 39 46 33 44 51 53 57 59 57 60 60
57 57 58 59 49 49 52 57 55 51 21 41 44 55 49 47 50 49 60 56 48 48 48 44 46 46 45 48 53 45 51 49 47 41 38 39 36 41 48 49 53 59 58 59 61
57 57 57 54 49 53 58 57 51 32 22 35 43 42 42 45 44 50 50 53 57 51 51 47 52 51 51 52 53 50 47 45 44 42 35 39 39 37 45 53 55 57 61 63 61
56 56 55 54 47 54 55 49 31 26 36 33 38 42 42 40 42 45 44 43 42 37 39 43 45 50 54 46 49 49 46 33 32 32 31 40 37 45 49 54 55 57 59 59 58
55 55 53 52 52 52 50 39 25 30 31 37 40 42 37 41 41 42 42 40 46 44 39 35 33 45 50 51 43 46 45 31 24 28 28 34 32 42 55 60 57 59 60 57 59
54 48 46 48 52 50 42 28 28 29 36 35 38 36 36 41 40 40 38 42 45 48 40 37 36 45 47 49 50 42 42 44 32 22 26 32 39 49 52 54 55 56 55 56 57
43 43 42 50 50 45 33 30 30 38 38 37 33 37 33 36 37 38 38 45 44 50 52 45 34 43 43 50 48 46 49 38 33 23 22 30 32 39 45 50 53 55 55 53 53
42 35 44 51 48 38 27 22 30 40 41 34 34 34 37 37 40 37 40 41 48 49 52 49 40 35 42 42 43 42 42 40 41 34 28 25 32 45 50 54 52 52 54 53 52
37 25 46 49 34 33 25 28 41 38 42 38 37 34 33 39 40 40 39 42 49 52 47 47 41 32 38 42 48 48 45 47 38 33 34 32 34 50 50 52 51 50 52 51 52
32 34 45 42 28 28 31 35 38 37 38 38 35 39 39 36 37 42 45 54 51 52 49 45 37 30 30 38 42 43 45 48 42 36 34 29 33 49 46 49 49 49 51 53 54
35 30 35 38 34 30 26 29 31 40 40 42 41 41 38 33 39 39 41 49 52 55 50 48 40 39 34 38 41 39 44 46 41 32 33 39 38 42 47 49 49 50 51 51 53
34 26 28 30 31 34 35 33 32 31 39 41 38 39 35 32 32 39 44 46 50 52 49 47 35 40 41 42 45 42 42 43 42 44 39 45 43 47 49 48 50 52 52 52 53
34 32 32 31 35 33 34 32 32 34 36 35 35 40 39 33 35 36 44 46 44 46 45 46 37 38 30 40 42 39 44 44 45 47 47 43 43 51 50 50 49 51 52 52 53
39 39 33 34 33 31 32 33 34 37 39 43 40 39 40 39 44 43 50 51 48 43 43 44 35 32 24 33 35 28 39 43 45 49 48 42 49 49 49 49 50 52 51 53 53
MSLP
1011.09 1011.55 1012.14 1012.59 1012.88 1013.26 1013.52 1013.79 1014.23 1014.65 1015.09 1015.50 1015.77 1016.31 1016.89 1017.42 1017.48 1017.84 1017.30 1016.80 1016.77 1017.03 1017.28 1017.16 1017.22 1017.08 1017.00 1017.02 1017.01 1017.03 1017.61 1017.29 1016.53 1016.14 1016.27 1015.93 1016.14 1016.43 1016.89 1017.54 1018.20 1018.98 1019.52 1019.53 1020.20
1010.77 1011.12 1011.66 1012.10 1012.60 1012.93 1013.18 1013.46 1014.00 1014.55 1015.04 1015.49 1015.86 1016.39 1016.88 1017.51 1017.92 1017.50 1016.84 1016.57 1016.60 1016.95 1017.44 1017.35 1017.41 1017.33 1017.45 1017.35 1017.36 1017.45 1017.80 1016.87 1016.14 1015.99 1016.06 1016.05 1016.27 1016.63 1017.20 1018.00 1018.95 1019.67 1020.05 1020.13 1020.64
1010.09 1010.57 1011.15 1011.62 1012.22 1012.64 1012.98 1013.37 1013.86 1014.39 1014.90 1015.28 1015.84 1016.47 1017.06 1017.17 1018.12 1016.66 1016.07 1016.81 1016.68 1016.81 1017.43 1017.35 1017.43 1017.74 1017.72 1017.63 1017.67 1017.50 1017.34 1016.46 1016.43 1015.91 1015.77 1016.10 1016.30 1016.55 1017.26 1018.14 1018.41 1019.44 1020.31 1020.64 1021.01
1009.79 1010.25 1010.70 1011.15 1011.76 1012.37 1012.72 1013.36 1013.83 1014.32 1014.69 1015.16 1015.81 1016.29 1017.28 1017.21 1017.50 1015.84 1016.19 1016.25 1016.68 1016.99 1017.86 1017.49 1017.64 1018.08 1018.17 1018.12 1017.78 1017.77 1017.01 1016.70 1016.63 1016.32 1016.04 1016.29 1016.33 1016.53 1016.98 1017.37 1017.49 1018.48 1019.41 1020.31 1020.86
1009.18 1009.81 1010.43 1010.84 1011.41 1012.00 1012.55 1013.13 1013.74 1014.14 1014.45 1015.04 1015.77 1016.28 1017.07 1017.13 1016.63 1015.75 1015.60 1016.21 1016.70 1017.22 1017.89 1017.56 1017.51 1017.98 1018.28 1018.23 1018.16 1017.77 1017.14 1016.86 1016.63 1016.49 1016.29 1016.29 1016.53 1016.78 1016.87 1017.01 1017.45 1018.52 1019.77 1020.25 1020.71
1008.46 1009.25 1009.96 1010.49 1011.17 1011.67 1012.22 1012.81 1013.58 1014.19 1014.56 1014.93 1015.53 1016.05 1016.52 1016.43 1015.63 1015.37 1015.96 1016.72 1017.01 1017.31 1017.69 1017.46 1017.26 1017.21 1017.88 1018.12 1018.17 1017.58 1017.32 1017.33 1017.22 1016.82 1016.77 1016.81 1017.03 1017.03 1016.82 1017.19 1018.07 1018.73 1019.83 1020.23 1020.46
1007.81 1008.58 1009.41 1010.20 1010.82 1011.36 1011.94 1012.58 1013.34 1014.11 1014.76 1015.02 1015.33 1015.80 1015.96 1014.64 1014.65 1014.91 1016.23 1016.84 1016.93 1017.43 1017.95 1017.50 1016.89 1017.15 1017.58 1017.92 1017.93 1017.87 1017.83 1017.62 1017.59 1017.33 1017.26 1017.30 1017.53 1017.06 1016.79 1017.34 1018.21 1018.85 1019.57 1020.23 1020.40
1007.14 1008.11 1009.04 1009.77 1010.51 1011.03 1011.64 1012.45 1013.26 1014.07 1014.82 1015.21 1015.29 1015.66 1015.01 1014.59 1014.74 1015.19 1016.15 1017.29 1017.10 1017.69 1017.89 1017.50 1017.04 1017.40 1017.82 1018.24 1018.23 1018.25 1018.10 1018.10 1017.85 1017.71 1017.67 1017.73 1017.32 1017.04 1016.89 1017.40 1018.09 1018.64 1019.12 1019.63 1019.81
1006.57 1007.61 1008.48 1009.25 1010.05 1010.62 1011.38 1012.30 1013.26 1014.12 1014.68 1015.27 1015.92 1016.21 1015.38 1015.01 1014.76 1015.21 1015.77 1016.64 1017.15 1018.05 1017.81 1017.50 1017.12 1018.06 1018.44 1018.84 1019.18 1018.88 1018.48 1018.35 1018.07 1017.72 1017.77 1018.07 1017.69 1017.02 1016.90 1017.29 1017.77 1018.04 1018.52 1018.93 1019.37
1005.93 1006.99 1007.94 1008.75 1009.52 1010.25 1011.05 1012.11 1013.23 1014.24 1015.02 1015.71 1015.97 1016.69 1015.37 1014.25 1014.15 1014.92 1015.58 1016.17 1017.50 1018.62 1018.47 1017.89 1017.63 1018.43 1018.90 1018.98 1018.71 1019.37 1019.14 1018.70 1018.21 1017.94 1017.98 1018.14 1017.95 1017.36 1017.03 1017.06 1017.28 1017.33 1017.70 1018.23 1018.49
1005.27 1006.37 1007.43 1008.30 1009.10 1009.94 1011.07 1012.42 1013.89 1014.57 1013.92 1013.27 1013.71 1013.79 1013.18 1013.75 1014.19 1014.57 1014.87 1016.22 1017.40 1018.35 1018.34 1018.10 1018.10 1017.88 1018.72 1019.01 1019.09 1019.18 1019.24 1018.86 1018.27 1017.73 1018.09 1018.04 1018.06 1017.59 1016.98 1017.11 1017.20 1017.12 1017.26 1017.47 1017.45
1004.76 1005.85 1006.88 1007.79 1008.61 1009.49 1010.68 1011.03 1010.99 1011.33 1013.13 1013.64 1013.81 1014.00 1013.62 1013.48 1014.35 1014.73 1014.95 1015.69 1016.79 1017.35 1017.72 1018.29 1017.32 1017.96 1018.96 1019.38 1019.27 1019.12 1019.08 1018.65 1018.19 1017.77 1018.12 1018.11 1017.95 1017.45 1016.91 1016.46 1016.50 1016.55 1016.43 1016.40 1016.80
1004.42 1005.48 1006.47 1007.41 1008.41 1009.50 1009.95 1010.18 1010.70 1011.27 1012.46 1013.03 1013.47 1013.75 1013.92 1014.07 1013.81 1013.88 1014.54 1015.18 1015.10 1016.64 1016.91 1016.58 1016.08 1017.78 1018.52 1019.06 1019.26 1019.02 1018.95 1018.60 1018.51 1018.38 1018.29 1018.63 1018.23 1017.37 1016.33 1015.74 1015.46 1015.44 1015.44 1015.33 1015.82
1004.09 1005.11 1006.13 1007.21 1008.90 1009.07 1009.74 1010.12 1010.64 1011.10 1011.94 1012.17 1012.60 1012.65 1013.44 1013.87 1014.09 1013.67 1014.08 1014.04 1015.10 1015.31 1016.11 1016.57 1016.32 1016.56 1017.78 1018.03 1018.59 1018.69 1018.69 1018.87 1018.81 1019.23 1019.33 1019.14 1018.26 1017.05 1015.96 1015.33 1015.03 1014.78 1014.83 1014.78 1014.93
1003.58 1004.70 1005.78 1006.75 1007.52 1008.46 1009.07 1009.67 1010.61 1011.58 1011.42 1010.37 1011.34 1011.49 1012.38 1013.24 1012.67 1012.97 1013.49 1013.84 1013.75 1013.95 1015.04 1014.44 1014.97 1015.99 1016.78 1016.58 1017.84 1018.44 1018.61 1019.18 1019.56 1019.95 1019.88 1019.54 1019.10 1016.51 1015.68 1015.30 1014.39 1014.07 1014.04 1013.87 1014.00
1003.18 1004.35 1005.53 1006.85 1007.53 1007.87 1008.33 1009.34 1010.50 1010.85 1009.63 1009.64 1010.09 1010.87 1012.08 1012.79 1012.78 1012.70 1013.59 1013.68 1013.08 1013.82 1014.43 1014.70 1014.77 1015.62 1015.60 1016.69 1017.25 1018.42 1018.93 1019.96 1020.44 1020.67 1020.12 1019.38 1019.06 1016.40 1015.34 1014.33 1013.46 1013.08 1012.89 1012.99 1013.29
1002.97 1004.09 1005.41 1006.33 1007.15 1007.38 1008.48 1009.78 1010.44 1008.96 1009.96 1010.02 1009.67 1009.76 1010.30 1011.41 1012.59 1012.52 1012.25 1012.80 1011.60 1012.93 1013.60 1015.20 1015.44 1015.30 1015.44 1016.42 1017.35 1017.78 1018.90 1020.61 1021.57 1021.39 1019.49 1018.84 1018.65 1015.64 1014.31 1013.11 1012.64 1012.54 1012.48 1012.30 1012.62
1003.21 1004.39 1005.57 1006.33 1006.73 1007.29 1008.28 1009.43 1009.16 1009.07 1009.69 1009.59 1009.24 1009.71 1009.75 1010.31 1011.14 1011.71 1012.12 1011.81 1011.72 1011.99 1012.93 1013.79 1015.51 1014.47 1014.12 1014.65 1015.41 1016.16 1016.94 1018.11 1019.83 1020.61 1019.96 1019.35 1017.30 1014.51 1012.69 1012.04 1012.02 1011.91 1011.87 1012.35 1012.47
1003.58 1005.14 1005.95 1006.58 1006.70 1007.35 1008.48 1008.89 1008.25 1008.23 1008.92 1009.08 1009.26 1009.19 1009.51 1009.93 1009.30 1011.00 1011.23 1010.45 1010.87 1010.54 1010.59 1012.41 1014.02 1014.07 1013.86 1014.40 1015.14 1016.13 1016.39 1017.52 1019.12 1020.47 1020.01 1018.34 1016.24 1014.27 1012.57 1012.09 1011.73 1011.71 1011.77 1011.97 1012.12
1003.85 1005.44 1006.41 1006.49 1006.77 1007.83 1008.72 1008.74 1008.93 1008.60 1008.31 1008.46 1009.05 1008.50 1008.36 1008.57 1009.41 1009.73 1010.22 1009.71 1009.52 1009.41 1009.24 1009.89 1013.24 1014.17 1014.39 1014.52 1015.23 1015.07 1015.78 1017.36 1018.09 1019.40 1019.34 1017.39 1015.81 1013.43 1012.62 1011.88 1011.85 1011.87 1011.73 1012.06 1012.35
1004.01 1005.75 1006.41 1006.58 1007.18 1008.56 1008.74 1009.02 1008.77 1008.36 1008.27 1008.99 1008.92 1008.64 1008.00 1007.74 1007.86 1008.17 1008.02 1008.88 1008.61 1008.47 1008.66 1008.93 1010.84 1014.60 1014.70 1014.06 1013.71 1014.88 1014.69 1015.35 1016.23 1017.29 1017.33 1016.80 1014.42 1012.05 1011.51 1011.10 1011.61 1011.92 1012.08 1012.37 1012.81
1004.15 1005.84 1006.50 1006.56 1008.17 1008.35 1008.67 1008.55 1007.97 1008.30 1008.41 1008.77 1008.92 1009.01 1008.66 1007.49 1006.76 1006.80 1006.35 1007.43 1007.62 1007.70 1007.85 1008.57 1010.38 1012.98 1013.59 1014.08 1013.52 1013.62 1013.90 1014.46 1015.34 1015.98 1016.26 1015.65 1013.52 1011.50 1010.98 1010.99 1011.53 1012.37 1012.58 1012.56 1012.70
1004.79 1006.21 1006.91 1007.14 1007.76 1008.08 1008.07 1007.85 1007.90 1007.74 1007.69 1007.82 1007.87 1008.09 1008.49 1007.43 1006.33 1005.85 1004.82 1004.08 1006.53 1006.63 1006.10 1007.66 1009.86 1012.46 1014.16 1014.66 1014.17 1013.42 1013.20 1013.68 1014.01 1014.73 1014.80 1015.02 1013.21 1011.83 1011.45 1011.49 1011.99 1012.14 1012.47 1012.59 1012.80
1004.84 1006.63 1007.41 1007.57 1007.38 1007.34 1007.67 1007.55 1007.44 1007.10 1007.19 1007.11 1006.47 1007.31 1008.10 1007.58 1006.42 1005.17 1004.50 1004.38 1005.02 1005.46 1005.87 1006.59 1008.67 1008.70 1009.03 1008.20 1010.72 1012.23 1012.12 1012.95 1013.49 1014.01 1013.52 1012.37 1012.41 1012.27 1011.96 1011.69 1012.01 1012.10 1012.23 1012.38 1012.67
1004.22 1005.63 1005.58 1006.44 1006.85 1006.85 1007.14 1006.81 1006.77 1007.02 1006.77 1006.62 1006.58 1006.19 1007.37 1006.86 1006.89 1003.95 1003.88 1003.61 1003.92 1004.42 1005.52 1005.75 1007.68 1008.70 1008.94 1009.71 1010.37 1011.19 1011.76 1012.53 1012.59 1012.19 1012.15 1010.41 1011.59 1011.25 1011.11 1011.04 1011.28 1011.39 1011.75 1012.15 1012.36
1004.05 1004.82 1005.67 1005.69 1006.39 1007.11 1006.83 1006.32 1005.99 1006.20 1006.19 1005.76 1005.21 1004.55 1005.59 1005.37 1005.49 1004.88 1003.16 1003.21 1003.40 1004.66 1005.82 1006.32 1007.56 1008.48 1009.99 1010.22 1010.32 1010.52 1010.85 1010.84 1010.19 1009.94 1009.76 1010.36 1010.46 1009.99 1010.47 1010.60 1010.81 1011.17 1011.45 1011.83 1012.06
1004.04 1004.54 1004.84 1005.63 1006.09 1006.67 1005.96 1005.32 1004.93 1005.75 1005.12 1004.42 1004.60 1005.49 1004.50 1002.50 1003.24 1004.43 1002.65 1001.84 1001.31 1003.28 1004.63 1005.66 1006.81 1008.49 1010.71 1010.86 1011.20 1011.64 1008.30 1007.89 1007.70 1009.18 1008.13 1009.35 1008.66 1009.83 1010.04 1010.23 1010.46 1010.86 1011.03 1011.38 1011.75
Wind_Speed
17 15 13 11 12 12 10 12 11 11 11 8 11 12 10 5 7 1 4 4 7 6 4 4 2 1 2 1 2 4 3 3 5 1 3 3 4 3 2 6 5 4 3 5 11
19 17 15 12 12 13 12 10 12 12 12 14 10 13 12 8 2 5 6 4 9 8 4 6 4 2 1 1 1 3 3 6 1 3 5 4 4 5 4 4 4 5 6 10 8
19 18 17 15 12 13 14 11 12 12 12 15 17 14 15 7 3 6 11 9 7 7 3 5 6 2 2 2 2 4 6 2 4 5 6 2 3 6 6 4 7 9 11 11 6
21 20 17 15 15 14 15 13 10 13 14 14 15 20 11 4 6 2 7 15 9 3 4 5 4 5 3 4 3 3 6 3 3 1 4 5 4 3 4 5 5 16 18 15 14
21 21 19 17 15 15 16 16 13 10 15 18 18 19 6 6 7 4 7 8 6 3 7 5 7 6 5 4 2 4 4 3 4 5 5 5 2 3 4 5 6 18 16 15 12
21 20 19 17 16 17 17 17 16 13 9 18 20 15 6 18 5 10 9 9 7 6 9 7 8 9 6 5 7 4 6 2 4 5 2 3 2 4 3 7 11 17 12 12 14
22 21 20 18 18 18 16 17 18 15 12 9 21 12 8 16 6 11 7 3 1 9 8 8 3 7 3 2 1 3 2 4 4 3 1 3 6 6 7 7 12 12 12 10 11
22 21 20 19 19 17 16 17 17 16 14 9 8 6 6 11 2 12 14 3 3 10 12 13 3 5 4 1 4 3 0 4 4 5 4 7 6 5 9 9 11 11 11 13 15
22 21 20 18 19 18 18 17 17 16 15 10 4 2 5 5 11 10 10 12 5 9 11 12 4 4 4 6 2 2 3 5 3 10 5 6 4 7 6 9 9 9 10 13 12
24 23 21 20 19 18 18 17 17 15 10 5 3 3 6 8 10 13 13 14 7 8 7 6 3 5 4 5 10 3 3 3 7 7 6 5 7 8 2 6 10 9 9 14 15
25 23 21 20 20 20 15 7 9 5 13 9 9 1 7 3 9 13 17 19 13 7 10 4 7 15 11 10 5 8 6 10 7 7 6 16 6 12 11 6 7 8 8 12 15
23 22 21 20 20 21 11 8 22 4 10 13 3 14 1 6 10 15 17 14 14 17 15 4 18 12 8 6 7 6 8 10 3 3 6 5 10 9 10 9 10 12 11 10 10
24 22 21 21 20 14 14 19 15 5 6 11 12 5 8 2 5 18 21 6 24 23 25 21 15 12 12 9 14 10 7 8 5 2 3 2 7 7 10 8 9 13 9 9 13
23 22 20 21 13 9 8 8 7 5 3 6 16 9 8 7 7 9 21 14 8 25 27 17 6 23 16 18 13 15 6 3 7 8 5 5 7 5 6 10 11 10 9 11 10
23 22 22 23 10 12 8 11 8 5 7 11 15 8 12 12 11 16 20 17 20 15 12 18 25 22 22 22 17 6 8 5 3 4 1 4 1 7 6 6 10 15 12 13 13
23 23 26 12 4 8 8 12 5 7 9 6 12 18 20 16 7 8 19 16 7 13 21 2 10 13 18 11 12 8 7 6 4 2 7 8 6 6 6 10 7 7 14 15 12
24 25 22 6 8 9 11 10 6 7 5 5 13 21 29 18 21 13 22 29 11 12 17 5 6 9 18 9 8 9 13 2 4 4 10 6 8 13 7 9 7 6 7 10 9
24 22 9 4 6 9 8 11 9 6 8 1 9 22 25 21 24 18 19 28 19 11 15 14 9 15 10 22 13 22 15 7 8 7 5 1 10 8 18 18 8 9 8 4 8
23 4 4 3 8 4 10 12 5 5 8 10 1 19 20 19 12 19 14 33 19 20 15 14 6 4 4 7 14 9 15 7 6 2 3 6 6 10 6 9 6 8 5 7 6
5 5 3 6 6 5 4 9 4 3 4 5 8 10 20 23 17 28 18 17 18 25 6 7 8 2 2 7 1 12 12 7 1 6 5 5 5 7 7 11 8 7 8 2 2
6 5 5 10 5 3 4 6 4 2 7 5 2 7 11 17 29 25 26 6 22 22 8 13 8 3 6 10 19 8 13 5 6 5 6 3 8 8 11 16 9 5 7 8 7
5 5 7 10 4 3 4 8 5 6 6 4 3 2 4 18 28 25 31 19 24 23 17 5 7 11 13 4 5 7 10 11 8 9 4 3 7 3 7 8 10 8 7 7 8
5 4 5 3 7 5 2 5 3 6 8 8 9 12 6 8 14 17 26 27 35 30 22 10 5 11 3 5 5 19 12 19 3 4 11 6 7 0 3 9 7 12 9 8 7
6 6 1 2 1 5 4 4 7 7 5 12 4 7 6 15 20 17 13 14 34 33 17 9 8 16 22 32 10 19 23 20 4 5 4 16 4 4 7 12 9 8 8 8 7
3 4 5 11 13 9 10 8 11 7 11 8 10 17 12 9 20 14 14 12 25 24 7 8 8 8 4 7 16 22 19 21 19 14 12 15 13 16 14 11 11 10 8 7 7
5 5 1 2 9 16 9 11 11 11 10 11 18 17 17 16 21 10 18 17 17 17 21 5 9 6 2 12 18 24 26 26 29 27 23 5 13 7 8 7 8 9 9 7 7
2 3 4 7 11 9 16 18 17 10 8 21 15 15 18 29 20 25 23 16 24 26 26 15 8 6 3 7 11 5 33 33 29 23 30 20 17 9 8 8 10 11 9 9 7
Wind_Direction
212 213 212 212 207 192 189 191 183 173 176 144 152 145 141 122 101 117 189 217 192 165 169 132 306 296 2 0 308 27 64 228 242 297 163 167 93 34 149 106 59 39 103 176 158
209 208 208 212 204 197 184 193 185 176 172 159 143 147 127 113 52 206 232 196 136 156 170 157 167 170 114 199 290 114 149 220 116 105 146 121 108 139 105 109 68 63 40 121 124
210 208 205 205 212 197 184 177 184 179 172 167 157 141 133 112 66 244 209 223 171 161 278 186 104 86 134 131 222 194 212 277 3 124 109 113 110 153 131 208 187 172 154 153 147
208 204 204 203 204 204 187 172 178 181 176 150 145 132 132 115 202 170 211 193 169 132 289 185 112 102 130 184 251 245 234 229 217 195 102 142 135 103 179 224 176 160 157 157 173
206 200 199 199 205 206 192 176 168 169 186 168 145 134 129 91 243 73 140 129 137 84 243 204 146 126 178 193 334 243 281 343 168 140 112 115 147 186 235 233 121 137 155 165 173
200 198 196 198 204 206 201 187 168 163 171 182 157 152 132 214 180 112 110 136 187 180 251 221 183 177 180 189 167 260 214 134 200 165 87 118 224 154 269 154 130 144 158 170 176
199 195 192 194 199 203 201 194 178 162 153 183 174 165 195 216 182 125 141 124 110 193 256 266 236 154 160 186 253 211 219 183 210 183 205 154 288 217 233 137 155 154 160 172 188
195 192 186 188 193 193 195 193 182 170 153 125 162 199 238 210 337 138 139 130 142 281 235 272 79 102 86 287 17 129 43 148 220 160 247 151 246 262 236 171 178 176 168 178 187
190 187 187 184 188 187 188 189 181 162 154 137 75 192 228 294 167 168 156 161 143 273 250 267 113 117 68 112 49 297 168 183 212 194 164 182 237 255 254 182 194 191 181 184 188
184 183 184 187 189 182 178 181 175 154 138 77 74 114 203 199 173 166 190 154 143 201 261 213 132 124 166 164 208 175 173 233 208 219 189 199 243 275 293 180 199 207 194 191 187
180 179 182 187 183 176 166 142 166 205 189 169 186 281 95 75 152 185 171 158 155 177 191 222 179 202 205 202 189 160 195 203 232 232 160 223 216 237 262 214 234 233 214 195 200
175 178 183 187 180 176 154 191 190 147 184 225 274 210 80 159 155 186 180 165 165 182 174 148 217 192 151 211 233 220 198 221 270 152 170 237 245 234 238 233 207 216 227 198 203
172 176 181 184 174 162 182 199 166 128 148 200 211 165 194 150 200 183 171 203 177 188 188 195 203 154 189 191 210 231 236 204 206 203 316 359 278 232 240 221 221 221 216 213 188
170 172 174 164 155 158 179 183 179 111 115 203 187 218 167 134 230 203 195 157 186 195 190 217 183 178 192 204 190 205 193 190 148 147 223 183 277 288 236 242 233 229 212 215 211
169 168 166 161 136 171 156 150 136 77 208 196 171 172 146 178 131 201 199 205 181 174 169 199 179 183 197 200 188 208 144 123 106 109 17 244 251 264 243 250 241 230 223 216 211
164 165 162 164 106 169 147 132 106 204 210 141 143 168 161 184 213 129 182 232 199 178 201 126 183 176 197 186 177 152 94 60 56 88 242 205 197 243 218 237 240 221 229 220 211
153 159 158 134 166 160 149 131 200 221 160 189 172 169 176 179 187 189 191 204 177 173 175 145 195 172 174 138 150 143 156 144 208 216 239 221 202 245 234 232 208 217 231 220 215
139 136 131 124 142 132 148 192 216 135 179 229 171 183 186 171 198 186 208 201 198 197 155 154 186 178 174 189 173 180 172 153 178 204 221 311 231 252 225 239 224 227 238 197 195
126 104 106 148 133 112 160 210 195 172 162 140 112 175 195 196 165 194 229 196 189 187 159 168 200 150 186 134 158 177 197 144 105 39 95 211 276 307 261 231 215 216 201 225 238
107 104 142 140 118 93 167 194 187 195 105 63 199 204 189 194 201 189 187 212 188 191 193 163 111 187 140 107 57 183 160 165 122 154 238 254 248 229 219 239 224 223 215 267 188
90 95 186 135 74 94 196 223 184 201 115 152 161 238 205 194 197 191 201 212 199 192 193 148 117 190 165 201 184 164 191 187 127 159 174 178 254 218 204 210 199 157 139 132 113
104 97 155 142 152 169 166 181 171 165 174 156 168 259 268 215 194 197 199 186 208 194 177 181 123 160 189 6 268 194 189 188 186 211 215 178 271 290 210 155 136 144 139 142 141
90 97 158 112 187 182 222 199 191 168 186 186 211 193 194 280 184 190 205 204 183 201 174 172 143 134 121 3 336 203 188 199 95 83 208 142 245 320 127 115 156 145 154 152 156
111 130 112 204 132 164 139 223 201 203 230 214 262 170 218 253 286 198 200 188 181 195 168 118 167 180 190 204 126 189 198 199 150 188 166 225 168 221 182 150 166 161 169 179 186
97 204 176 177 207 204 180 194 203 215 208 209 246 225 200 233 268 195 183 193 184 188 157 132 161 172 112 151 171 180 179 188 210 201 200 221 204 201 192 173 179 182 182 174 191
130 144 74 128 176 197 205 214 204 210 190 223 229 223 203 214 218 281 184 183 180 171 175 221 164 121 82 172 166 183 194 195 211 209 231 118 225 194 190 172 165 180 176 184 198
74 30 110 155 184 187 208 210 220 216 253 231 212 223 217 221 209 234 228 180 159 168 185 180 133 118 199 150 109 187 200 197 211 204 217 215 213 187 201 176 180 192 176 176 184